Wind_Speed
67 68 69 71 77 75 77 81 80 79 76 74 73 70 67 65 58 54 55 58 57 49 45 43 40 38 38 36 38 44 43 43 41 40 39 39 42 44 44 43 42 40 37 37 37 36 37 38 40
69 65 65 68 64 70 75 81 83 81 78 71 77 76 72 68 60 63 60 58 60 55 50 46 43 42 41 39 39 41 44 44 45 44 42 42 41 42 46 47 46 46 46 47 44 44 44 44 46
76 70 63 61 60 64 72 82 81 84 84 74 74 75 74 73 67 67 62 60 58 57 57 53 52 48 45 42 41 42 44 46 49 49 48 48 50 48 45 48 49 50 49 49 49 50 48 50 52
76 76 71 63 60 62 71 75 80 84 87 79 82 77 74 73 73 72 66 64 63 61 58 59 57 53 50 45 44 44 44 45 44 43 47 49 50 50 49 49 50 51 52 54 54 56 57 56 56
75 76 74 65 68 70 68 71 71 78 83 81 85 81 77 72 74 77 71 68 68 66 63 59 57 57 56 54 50 45 46 46 48 46 46 46 46 47 49 50 53 53 54 55 55 57 57 57 58
77 78 75 72 72 77 74 72 70 74 78 80 82 86 80 77 73 74 74 70 68 69 70 64 61 59 57 59 57 49 47 46 46 48 48 47 46 47 48 48 51 54 56 56 56 54 55 58 58
80 78 75 76 75 77 79 75 70 73 75 77 79 81 82 80 79 77 75 77 72 70 70 70 66 63 60 59 59 54 49 49 49 48 47 48 48 47 46 49 49 50 53 55 56 55 53 54 53
83 81 75 75 78 79 83 80 76 77 72 77 79 77 77 80 82 81 76 76 76 72 70 69 69 66 64 60 60 60 55 52 52 51 48 47 48 47 47 47 47 48 49 49 49 49 50 50 53
82 77 75 75 80 83 87 82 77 76 72 74 76 76 75 75 79 63 82 78 80 74 72 72 72 69 66 66 62 61 62 58 57 55 52 50 50 51 52 52 51 48 48 48 49 49 51 51 53
81 77 75 78 80 82 81 80 77 77 76 76 80 76 77 80 78 72 76 74 70 79 76 75 73 75 72 70 65 63 63 60 62 60 55 52 52 54 55 56 55 54 53 53 52 53 54 54 55
77 77 78 78 78 78 79 77 76 78 77 78 81 75 73 76 79 78 84 83 75 70 72 75 75 76 74 73 71 70 69 67 64 61 57 57 57 58 58 59 60 59 59 58 57 57 58 58 60
69 73 79 80 80 77 75 76 75 77 76 76 82 81 76 76 78 80 83 85 77 75 66 73 74 76 74 75 76 74 73 70 69 67 64 63 62 61 63 63 62 63 61 61 61 62 61 62 62
67 73 75 79 79 79 79 76 74 69 71 77 78 77 75 75 76 80 82 82 81 81 77 76 68 73 72 73 76 78 76 74 72 73 72 69 67 64 64 66 65 64 65 63 62 62 62 62 63
60 66 68 73 77 79 78 78 72 73 79 75 73 73 73 73 78 78 79 80 78 81 83 81 82 77 75 75 77 80 79 76 74 74 75 69 68 67 69 67 67 67 65 65 64 64 64 62 62
58 61 62 63 69 69 75 62 73 79 78 75 74 72 72 72 73 77 79 80 79 79 79 82 85 83 81 80 81 81 80 77 73 73 73 73 71 71 69 68 67 67 63 62 63 62 61 60 61
57 60 60 63 60 65 68 63 68 66 75 73 74 70 71 73 74 75 78 78 80 80 81 81 82 85 84 80 79 82 82 80 78 75 74 71 70 70 69 68 67 65 62 61 60 60 58 59 61
53 58 61 63 63 60 59 64 66 65 68 67 62 64 69 71 71 72 74 77 79 81 80 82 80 81 78 78 78 79 77 76 74 75 77 74 71 69 68 67 63 62 59 59 58 57 57 58 60
51 57 60 63 63 64 56 50 62 67 63 66 67 68 69 70 72 71 70 74 77 78 78 79 81 83 81 81 79 79 77 77 76 74 75 73 70 69 67 64 61 58 57 56 56 57 57 59 60
51 58 61 62 63 57 58 56 58 65 69 72 72 72 72 70 69 67 67 69 72 76 76 77 79 82 82 82 81 79 75 75 73 73 72 70 69 66 63 62 58 56 55 56 58 59 59 60 60
50 58 62 65 63 60 61 57 58 61 65 68 71 74 70 64 61 60 62 65 68 73 76 76 77 78 79 81 81 77 76 74 72 71 70 69 65 62 61 59 56 56 56 57 58 59 61 59 57
48 56 64 66 66 64 64 62 61 67 71 68 68 68 65 66 64 62 60 63 64 65 70 75 76 77 77 76 77 74 72 70 69 70 68 63 60 61 59 56 56 57 57 58 58 60 59 56 56
45 53 63 67 69 68 65 64 68 72 68 67 71 72 69 68 66 65 61 60 63 63 66 68 73 74 74 76 73 71 70 69 70 68 62 61 61 60 58 58 59 58 57 58 58 57 57 55 55
47 50 58 68 71 70 71 67 74 77 72 70 70 76 78 78 72 67 66 62 62 62 63 66 67 71 72 74 75 71 69 69 68 64 63 63 62 60 59 58 58 58 59 59 58 56 56 54 55
49 52 54 62 70 73 77 73 75 79 77 75 71 73 74 77 75 74 70 65 64 64 62 64 65 65 67 70 73 73 71 70 68 68 67 65 63 61 60 59 59 60 60 59 58 54 53 55 53
56 50 55 56 59 67 77 82 83 81 81 76 75 75 77 74 75 73 71 69 65 66 65 67 64 66 67 66 68 72 73 69 70 69 66 63 64 62 61 61 61 61 60 59 56 54 53 54 54
63 61 59 60 60 59 65 77 86 89 84 82 78 73 78 79 77 76 76 73 70 69 67 66 66 65 70 68 69 68 70 73 70 71 69 66 66 63 63 62 62 62 60 59 55 54 53 54 55
70 69 71 63 53 60 61 69 80 87 87 84 86 84 78 83 84 82 78 78 75 72 70 67 70 68 69 73 72 71 69 69 73 74 71 70 66 65 63 63 63 62 59 59 56 54 53 54 55
74 74 75 76 67 59 56 67 84 76 81 88 90 91 90 84 82 88 83 83 81 79 73 71 68 70 71 73 75 72 71 72 73 71 69 68 67 64 62 62 63 61 58 59 57 55 54 55 54
76 75 75 78 74 71 62 68 76 79 79 84 92 95 95 93 88 85 89 89 87 84 81 75 72 69 72 74 76 76 72 73 72 70 69 68 67 64 62 62 62 60 59 59 57 56 53 54 54
75 76 75 73 70 69 72 71 74 81 85 85 89 91 98 98 97 94 90 89 85 83 83 82 77 73 73 76 76 74 74 74 73 70 69 68 66 63 62 62 62 60 59 58 57 55 54 50 55
Wind_Direction
244 243 241 245 245 243 243 242 242 239 242 238 240 239 239 244 246 248 248 250 248 246 245 245 244 244 239 236 243 241 243 246 248 249 248 251 251 253 253 256 259 259 255 256 258 261 263 263 268
244 244 243 241 242 241 240 241 240 240 239 240 240 238 240 243 243 242 244 246 249 248 248 244 243 245 242 244 240 241 240 244 245 247 251 253 256 255 253 255 258 260 261 262 260 259 261 263 264
240 242 244 242 241 240 242 241 240 241 240 236 239 240 239 241 240 240 241 244 251 250 250 249 246 244 244 246 245 244 243 246 246 247 249 251 255 258 258 257 257 259 262 265 265 266 265 265 266
239 240 242 245 241 242 238 241 239 241 240 234 238 239 239 240 239 238 240 243 248 247 249 249 249 248 245 244 248 246 244 246 248 249 250 252 255 256 258 258 258 257 259 260 264 267 271 272 271
238 238 239 240 239 243 242 242 238 241 241 239 239 239 237 237 239 238 238 240 242 246 247 248 251 252 253 248 243 246 247 247 248 250 252 254 254 255 257 259 258 257 258 260 264 265 268 270 273
239 238 236 239 239 240 243 244 239 242 241 239 240 238 235 235 235 236 238 239 241 242 247 247 248 250 252 251 247 245 249 250 251 252 254 255 256 257 257 259 260 260 261 264 266 268 268 270 272
237 237 236 237 240 241 244 242 243 241 242 239 241 241 238 238 235 237 239 237 238 242 242 245 247 246 248 252 249 246 249 251 250 252 254 254 257 259 259 259 260 261 261 262 264 266 268 270 273
237 237 237 239 238 239 240 241 238 242 241 240 240 240 238 236 237 236 237 238 236 239 240 241 244 243 245 249 251 251 248 251 254 253 253 257 259 260 260 259 260 263 262 263 265 267 270 271 272
237 237 238 239 239 237 237 238 240 241 241 242 240 239 238 236 235 235 234 235 236 238 240 242 244 244 244 246 246 249 250 250 254 252 254 258 261 262 261 261 261 261 261 265 268 271 273 274 276
237 238 237 238 238 240 242 239 241 242 241 241 244 235 237 236 235 232 233 233 235 238 240 238 238 243 245 244 246 247 246 248 252 254 254 257 261 262 263 264 265 264 265 266 269 272 274 276 278
237 236 236 239 239 238 241 242 241 242 242 240 242 241 236 236 238 235 234 234 231 235 237 239 239 239 241 244 246 246 248 251 252 252 249 255 261 265 264 264 264 266 267 268 271 274 276 279 282
235 236 236 239 240 240 240 243 241 242 243 242 242 241 239 236 236 237 234 234 232 231 231 237 238 238 240 242 246 246 245 249 251 250 252 255 259 265 266 264 263 264 268 270 271 274 277 279 282
234 233 234 234 239 239 238 239 240 240 243 242 242 241 241 239 235 238 236 233 235 232 231 234 234 236 238 242 244 245 247 249 251 251 252 255 260 265 264 264 265 266 267 270 272 275 278 279 283
237 235 235 234 235 233 233 237 239 239 238 241 242 242 240 239 236 236 237 234 233 235 234 235 236 236 239 242 244 245 247 249 252 251 251 256 260 263 264 264 264 267 269 271 273 274 276 278 281
236 233 233 235 235 236 235 232 235 237 237 238 242 242 241 241 238 236 236 235 232 233 233 235 235 238 240 242 243 246 246 248 250 252 253 258 261 264 262 264 267 266 268 270 273 274 275 277 281
234 231 231 233 234 237 232 226 227 235 236 239 239 241 241 241 239 236 235 236 232 232 233 234 237 238 239 240 242 244 246 248 250 252 254 258 261 262 262 264 266 264 266 268 270 272 274 278 282
234 232 232 233 231 232 234 232 232 233 235 234 234 237 238 238 239 237 234 234 235 232 234 235 235 236 238 239 243 244 244 247 249 252 254 256 260 263 262 263 261 263 264 266 269 272 275 280 283
233 232 232 236 237 232 228 230 245 236 229 230 229 230 232 237 240 238 236 235 235 234 232 234 235 236 237 239 241 244 246 248 252 253 255 258 259 259 259 259 260 260 261 264 268 272 277 280 284
233 232 232 236 238 237 233 228 233 238 237 232 232 234 233 234 240 240 239 238 236 235 234 233 234 236 238 238 240 243 245 247 249 251 254 255 256 258 257 257 255 256 260 263 267 271 274 278 284
238 232 233 237 239 236 237 234 235 237 238 237 237 233 232 233 243 247 242 240 238 236 235 234 234 236 237 239 239 242 244 245 248 249 250 252 254 255 254 252 253 256 259 263 266 270 273 278 282
246 238 235 236 238 237 236 236 236 236 236 238 232 236 233 233 234 238 238 238 238 239 237 236 234 235 237 238 238 238 241 243 244 244 247 251 253 252 249 251 254 256 259 262 266 268 272 278 282
251 244 239 236 239 239 236 232 237 240 236 238 235 232 233 232 232 233 240 240 239 239 237 237 236 235 236 237 236 236 237 239 241 243 245 246 247 247 249 251 253 255 258 263 266 268 272 278 282
260 251 242 240 240 239 241 232 240 239 241 242 238 235 233 233 231 232 234 240 239 238 238 235 235 236 234 236 235 233 234 235 238 241 241 243 243 244 245 248 251 254 259 262 263 267 273 277 280
259 255 253 245 241 239 241 239 235 242 240 239 241 239 236 236 234 234 233 233 237 236 237 237 234 234 235 235 234 232 232 235 235 239 240 241 242 243 246 248 252 255 258 261 261 267 271 275 278
273 261 253 252 245 242 240 241 240 236 240 240 240 237 234 233 233 233 232 230 233 235 233 235 235 232 233 235 235 233 230 233 234 235 237 237 240 242 245 248 251 254 256 257 259 265 269 273 276
271 272 264 252 249 246 244 242 242 239 237 239 240 239 234 233 233 233 233 228 232 233 234 231 234 233 231 232 235 233 232 232 235 235 237 237 239 242 244 248 251 253 256 255 258 264 268 271 275
275 275 274 271 258 245 247 248 245 241 239 236 236 239 236 233 231 232 230 230 229 230 233 233 229 233 232 231 234 232 231 231 233 235 235 237 238 241 243 246 250 251 253 254 257 262 265 268 273
272 273 273 273 272 264 245 241 249 243 241 240 236 234 236 235 233 231 231 230 231 233 230 231 231 229 230 230 233 232 231 232 234 234 235 237 238 239 242 246 248 250 251 253 256 259 261 265 269
274 273 271 268 266 263 255 246 240 242 241 237 238 236 234 234 233 232 232 232 230 232 232 230 229 229 228 230 231 232 231 232 233 234 235 235 237 238 241 243 246 248 251 253 256 257 260 265 268
275 274 273 269 265 256 249 243 244 242 240 238 235 236 236 233 232 232 232 230 231 231 229 230 228 228 228 228 230 231 231 232 232 232 233 234 234 236 240 243 245 248 251 253 254 256 259 262 266
Height
10687 10692 10697 10703 10712 10722 10725 10723 10724 10731 10737 10747 10748 10760 10765 10769 10782 10789 10792 10785 10789 10799 10803 10807 10810 10813 10816 10819 10820 10823 10825 10828 10831 10833 10836 10837 10839 10841 10843 10845 10846 10848 10849 10849 10850 10851 10851 10851 10851
10674 10678 10685 10694 10702 10707 10708 10705 10712 10718 10724 10736 10738 10746 10753 10763 10772 10775 10779 10777 10781 10792 10795 10798 10802 10805 10809 10812 10814 10816 10818 10821 10824 10827 10830 10832 10834 10835 10836 10838 10840 10841 10843 10844 10844 10844 10845 10845 10845
10658 10666 10674 10683 10689 10694 10689 10692 10699 10703 10706 10724 10724 10733 10744 10749 10758 10761 10769 10771 10774 10783 10785 10789 10793 10797 10800 10804 10807 10810 10812 10814 10817 10819 10822 10824 10826 10829 10830 10832 10833 10835 10836 10837 10838 10838 10838 10838 10838
10643 10652 10661 10672 10677 10675 10676 10677 10686 10686 10692 10711 10707 10721 10730 10738 10746 10747 10760 10763 10764 10768 10775 10778 10783 10788 10792 10795 10799 10802 10804 10807 10808 10812 10814 10817 10819 10821 10823 10825 10826 10827 10828 10829 10829 10830 10830 10830 10830
10627 10636 10647 10658 10660 10657 10659 10661 10673 10674 10679 10696 10694 10702 10715 10726 10731 10735 10746 10751 10754 10758 10762 10769 10775 10778 10782 10786 10789 10792 10795 10798 10802 10805 10806 10809 10811 10813 10814 10816 10818 10819 10820 10821 10822 10822 10822 10822 10822
10610 10616 10631 10640 10640 10641 10645 10649 10660 10663 10667 10679 10681 10687 10702 10709 10716 10724 10732 10740 10742 10747 10750 10759 10764 10768 10772 10776 10779 10782 10786 10790 10794 10796 10799 10800 10802 10804 10806 10808 10809 10811 10812 10813 10814 10814 10814 10813 10813
10588 10596 10613 10620 10626 10629 10628 10637 10646 10647 10652 10662 10664 10677 10691 10694 10703 10711 10718 10726 10729 10734 10739 10745 10753 10757 10761 10766 10769 10773 10777 10780 10784 10787 10790 10792 10794 10796 10797 10799 10801 10802 10803 10804 10805 10805 10804 10804 10804
10567 10582 10595 10604 10607 10609 10607 10616 10627 10630 10640 10646 10654 10663 10675 10680 10684 10697 10705 10710 10717 10721 10728 10733 10740 10745 10749 10756 10760 10764 10767 10770 10773 10777 10781 10784 10786 10788 10789 10791 10792 10793 10794 10795 10796 10796 10796 10796 10795
10550 10569 10577 10579 10583 10579 10583 10604 10614 10621 10630 10633 10638 10648 10658 10666 10671 10684 10691 10699 10703 10712 10719 10723 10728 10732 10737 10744 10748 10753 10757 10759 10764 10768 10771 10775 10777 10779 10781 10782 10784 10785 10786 10787 10787 10788 10787 10787 10786
10535 10549 10557 10556 10559 10570 10581 10593 10601 10602 10612 10619 10618 10633 10639 10646 10656 10669 10677 10686 10694 10700 10705 10712 10713 10719 10725 10731 10736 10741 10745 10749 10754 10758 10761 10763 10765 10768 10771 10773 10774 10776 10777 10777 10778 10778 10777 10777 10776
10517 10530 10534 10540 10546 10556 10564 10573 10585 10585 10595 10598 10602 10619 10633 10635 10640 10652 10658 10668 10678 10688 10691 10694 10700 10706 10712 10718 10723 10727 10733 10738 10743 10747 10750 10752 10755 10758 10760 10762 10764 10765 10766 10767 10768 10767 10767 10766 10764
10500 10508 10516 10521 10530 10540 10550 10556 10568 10572 10579 10586 10585 10596 10612 10619 10625 10631 10635 10647 10663 10670 10675 10676 10684 10692 10699 10705 10709 10714 10719 10725 10730 10736 10738 10740 10744 10747 10749 10750 10753 10754 10756 10757 10757 10757 10757 10755 10753
10483 10488 10499 10504 10512 10523 10531 10539 10548 10564 10564 10562 10570 10584 10596 10604 10610 10609 10620 10635 10645 10652 10656 10664 10671 10679 10684 10691 10695 10697 10705 10712 10718 10723 10727 10729 10734 10736 10737 10739 10742 10744 10745 10746 10746 10746 10745 10744 10742
10469 10475 10483 10489 10492 10500 10514 10521 10539 10541 10536 10551 10560 10568 10579 10585 10592 10597 10605 10616 10629 10634 10640 10649 10656 10664 10670 10675 10679 10684 10691 10698 10705 10710 10713 10718 10722 10724 10726 10728 10732 10733 10734 10734 10735 10735 10734 10732 10731
10453 10461 10468 10472 10478 10489 10501 10510 10518 10512 10530 10541 10544 10551 10563 10569 10575 10582 10587 10596 10610 10615 10623 10631 10640 10647 10654 10660 10666 10671 10678 10684 10691 10696 10700 10706 10709 10712 10715 10717 10721 10722 10723 10723 10723 10723 10722 10721 10720
10439 10449 10455 10456 10466 10475 10487 10494 10494 10505 10516 10525 10531 10538 10545 10552 10557 10564 10572 10578 10593 10600 10605 10615 10624 10632 10639 10646 10652 10657 10665 10672 10677 10682 10687 10691 10695 10699 10703 10706 10708 10711 10711 10711 10712 10712 10712 10711 10709
10430 10438 10443 10445 10452 10462 10476 10484 10483 10493 10502 10509 10514 10521 10527 10533 10540 10547 10556 10564 10572 10584 10592 10602 10610 10616 10626 10633 10638 10645 10652 10658 10663 10667 10670 10677 10683 10687 10690 10694 10696 10698 10700 10700 10701 10701 10700 10700 10698
10421 10427 10433 10435 10442 10452 10462 10474 10476 10478 10485 10492 10495 10501 10509 10515 10521 10533 10544 10550 10559 10568 10578 10587 10594 10601 10611 10618 10625 10630 10638 10643 10648 10651 10655 10666 10670 10674 10678 10682 10684 10686 10688 10689 10690 10690 10690 10689 10686
10412 10417 10421 10426 10431 10444 10449 10459 10462 10461 10473 10475 10478 10484 10489 10500 10509 10521 10529 10537 10546 10554 10563 10570 10577 10584 10595 10603 10610 10615 10622 10627 10632 10637 10643 10651 10657 10662 10666 10670 10672 10675 10677 10679 10680 10679 10678 10677 10676
10403 10406 10410 10412 10420 10433 10437 10447 10449 10449 10451 10455 10461 10463 10478 10494 10504 10512 10519 10525 10532 10537 10545 10554 10561 10569 10577 10585 10593 10601 10606 10613 10619 10627 10631 10636 10645 10649 10653 10657 10660 10663 10667 10668 10669 10668 10666 10666 10665
10390 10394 10398 10402 10408 10415 10425 10433 10434 10428 10429 10442 10449 10457 10471 10477 10484 10492 10499 10507 10514 10521 10527 10535 10544 10552 10561 10570 10577 10586 10593 10601 10605 10610 10618 10628 10632 10634 10640 10644 10649 10652 10656 10657 10658 10656 10654 10655 10654
10379 10382 10384 10388 10393 10400 10409 10419 10414 10407 10422 10428 10435 10445 10452 10458 10466 10478 10487 10494 10500 10505 10512 10520 10529 10537 10547 10554 10562 10570 10578 10585 10590 10598 10610 10614 10617 10622 10627 10633 10638 10641 10644 10645 10646 10644 10642 10643 10643
10366 10366 10368 10372 10379 10385 10387 10402 10394 10392 10404 10411 10418 10425 10432 10440 10451 10461 10471 10479 10486 10493 10496 10503 10512 10522 10531 10537 10546 10555 10564 10570 10577 10588 10594 10599 10605 10610 10615 10620 10625 10628 10631 10632 10633 10632 10631 10631 10632
10350 10351 10352 10356 10362 10370 10367 10378 10377 10374 10382 10392 10402 10410 10417 10426 10436 10445 10453 10462 10469 10476 10483 10488 10496 10506 10514 10521 10529 10539 10547 10555 10564 10571 10577 10585 10593 10597 10602 10607 10612 10616 10618 10619 10620 10620 10619 10619 10621
10331 10334 10334 10338 10344 10350 10353 10355 10354 10360 10362 10375 10380 10389 10397 10409 10418 10426 10436 10445 10452 10459 10467 10475 10482 10491 10498 10506 10514 10522 10532 10542 10549 10555 10563 10571 10576 10583 10589 10594 10598 10602 10605 10607 10608 10608 10607 10607 10608
10309 10312 10312 10319 10325 10330 10333 10334 10327 10335 10349 10359 10365 10371 10381 10390 10398 10407 10417 10427 10435 10443 10450 10460 10468 10475 10482 10491 10499 10507 10517 10529 10534 10541 10550 10557 10562 10570 10575 10580 10584 10588 10592 10594 10596 10596 10595 10596 10596
10289 10290 10288 10294 10303 10312 10318 10311 10301 10318 10331 10341 10347 10350 10357 10367 10377 10387 10396 10407 10417 10425 10433 10442 10452 10459 10467 10475 10482 10492 10503 10512 10517 10524 10536 10542 10548 10555 10562 10567 10570 10575 10579 10581 10583 10583 10583 10584 10584
10267 10269 10268 10270 10275 10281 10293 10293 10269 10300 10312 10317 10320 10327 10333 10345 10356 10366 10377 10388 10398 10407 10416 10424 10434 10443 10449 10457 10464 10476 10488 10495 10500 10511 10521 10527 10534 10542 10548 10553 10557 10561 10565 10568 10570 10571 10571 10571 10571
10242 10244 10246 10242 10249 10252 10262 10260 10261 10269 10282 10289 10291 10303 10310 10321 10333 10342 10354 10365 10376 10386 10396 10406 10417 10426 10433 10439 10447 10460 10472 10478 10485 10497 10504 10512 10519 10527 10532 10538 10543 10547 10552 10555 10557 10559 10560 10559 10559
10217 10216 10216 10215 10221 10225 10228 10236 10242 10245 10250 10259 10265 10276 10283 10294 10307 10318 10329 10341 10353 10364 10376 10387 10398 10408 10416 10423 10431 10444 10455 10463 10470 10480 10488 10494 10503 10511 10517 10524 10529 10534 10538 10541 10544 10546 10547 10546 10546